Wind_Speed
16 16 15 15 16 15 14 14 13 12 12 12 13 12 12 12 12 13 14 15 16 17 17 20 25 22 20 22 21 21 21 19 18 16 13 12 12 12 12 11 10 10 9 11 15 19 22 22 22 20 18 19 18 16 17 18 20 21 20 21 24 23 19 19 17 12 14 16 18 22 24 25 24 21 20 19 17 18 16 10 6 7 9 8 8 9 8
11 11 11 12 12 13 13 13 12 12 11 11 11 11 11 12 14 14 14 15 17 18 15 16 21 21 20 22 21 19 20 20 18 16 15 13 11 12 11 10 10 11 11 11 13 16 17 18 20 18 16 18 20 19 18 17 18 19 17 18 24 24 22 21 17 11 12 13 14 20 24 25 24 21 21 22 18 16 15 11 8 11 13 11 9 10 8
8 8 9 9 10 11 12 12 12 11 10 9 10 9 11 12 12 13 15 16 18 20 17 15 15 16 19 19 17 16 16 19 21 19 18 18 16 14 11 11 12 13 13 12 13 17 15 13 18 18 15 17 20 20 20 20 19 19 18 19 21 21 21 24 22 14 12 12 14 17 20 22 23 21 21 24 22 20 18 14 11 13 13 13 13 14 11
8 9 9 9 10 10 11 11 10 10 9 8 8 8 10 12 11 12 14 17 21 22 22 22 16 13 15 16 16 14 12 15 20 20 19 19 20 17 13 13 13 13 14 12 12 18 16 11 15 17 15 16 18 18 19 21 22 22 22 20 19 20 21 25 26 21 17 16 16 18 19 20 23 24 25 27 25 23 21 17 15 13 12 14 18 19 18
10 11 11 10 10 11 11 10 9 9 9 8 7 7 9 11 13 14 15 16 19 20 22 24 20 16 15 14 15 14 12 13 16 17 19 19 19 19 16 15 12 10 13 13 11 16 17 14 14 15 14 15 15 15 16 18 21 22 22 20 19 20 22 23 26 25 22 18 15 16 19 21 22 23 25 26 25 24 22 20 18 15 14 15 15 16 18
12 12 12 11 11 11 11 10 10 8 8 8 7 6 8 12 14 16 17 16 17 19 22 25 24 21 19 16 15 13 10 11 13 15 19 20 20 18 14 15 15 12 13 15 12 14 17 16 15 14 15 15 14 12 13 14 15 17 20 23 22 20 19 20 22 23 24 23 21 19 18 18 20 21 21 23 25 25 25 23 19 18 18 17 13 12 16
12 12 12 12 11 11 11 10 9 8 7 7 6 6 8 12 14 16 18 19 18 20 23 26 25 23 22 20 19 15 11 11 14 16 17 17 20 18 13 15 20 17 15 16 13 13 16 16 15 16 16 15 14 13 11 11 12 13 16 21 24 22 18 18 19 18 21 25 25 22 18 16 18 19 19 21 23 23 23 21 18 18 20 18 15 17 21
13 13 12 12 11 11 10 10 9 8 7 6 6 7 8 11 14 16 17 19 20 18 20 22 21 21 22 20 19 19 16 14 15 16 15 14 18 21 18 19 22 19 18 18 15 15 16 15 15 18 17 15 15 14 11 9 10 12 12 15 20 19 16 17 17 15 17 22 23 20 17 15 16 17 17 18 18 19 19 17 17 19 19 18 17 19 22
14 13 12 12 11 11 10 9 9 8 7 6 6 7 8 10 13 16 16 18 19 17 18 20 18 16 18 19 19 20 19 17 16 16 17 17 18 21 21 21 21 20 20 21 19 18 18 16 15 17 17 16 16 16 14 12 11 11 10 12 16 17 13 14 17 15 14 16 17 16 15 14 15 16 17 18 18 17 16 16 17 19 16 15 16 17 18
15 14 13 12 11 10 10 10 9 8 6 6 5 6 7 9 11 14 15 16 18 18 17 18 15 13 18 20 20 19 18 18 17 14 16 19 18 19 20 20 19 19 22 24 23 21 20 19 18 17 16 17 17 16 16 16 13 11 11 10 13 16 14 12 15 15 13 14 14 14 14 14 15 17 18 17 17 16 15 15 16 16 14 13 14 15 14
15 15 14 13 11 10 9 9 9 8 7 5 5 5 6 7 9 12 13 14 16 17 16 17 17 17 19 19 19 19 18 18 18 16 16 19 19 18 19 18 18 19 22 24 25 24 23 21 20 19 18 17 17 17 16 16 16 15 14 11 11 15 15 13 14 14 11 12 14 13 13 13 13 14 17 17 16 16 15 15 15 14 13 13 14 14 14
16 16 15 14 12 10 9 9 9 9 7 6 5 5 5 6 7 9 11 12 15 16 16 18 20 20 19 18 18 19 19 19 19 19 18 19 19 19 18 17 19 20 21 22 23 24 24 23 22 22 21 19 19 19 18 18 19 18 17 15 13 14 15 14 15 16 12 11 14 13 12 12 11 12 16 17 16 15 15 14 14 13 13 13 13 14 14
17 16 16 15 13 11 10 9 9 9 8 6 5 5 5 5 5 7 9 11 14 16 17 18 19 20 19 19 19 19 19 19 19 19 19 19 19 18 18 18 18 19 19 20 21 22 22 23 23 23 23 22 21 21 21 21 21 20 20 20 17 14 15 15 15 14 12 14 16 13 8 8 10 12 14 14 13 12 12 13 13 13 13 12 13 13 13
17 17 16 15 14 12 11 9 9 9 8 7 5 5 5 4 4 5 7 10 12 14 15 15 18 19 20 20 19 19 19 19 19 19 20 20 19 18 18 17 17 18 19 19 19 19 18 18 19 19 19 20 20 20 21 23 24 22 21 21 20 17 15 16 16 15 14 17 19 15 9 7 10 10 9 10 10 9 10 12 13 12 11 11 12 12 11
16 16 16 15 14 13 12 10 9 9 8 7 6 5 5 4 5 4 5 7 10 12 14 15 16 17 18 18 19 20 20 20 20 20 20 20 20 19 18 17 16 17 17 18 18 17 14 14 17 18 18 19 20 19 18 20 22 24 24 22 22 21 18 16 17 17 17 19 19 16 13 14 15 14 11 9 8 8 8 10 12 12 12 11 10 9 8
16 16 15 15 14 13 12 11 10 9 8 8 7 6 5 4 4 4 4 4 6 9 12 14 14 15 16 17 18 19 20 20 21 20 18 20 22 21 19 17 16 15 15 16 17 15 13 14 18 19 19 19 19 18 16 15 16 20 25 25 23 23 21 18 18 18 17 19 19 16 15 16 15 13 12 10 9 7 8 11 13 12 11 10 7 7 8
17 16 15 15 14 14 13 12 10 9 8 8 7 6 5 5 4 4 4 4 5 7 9 11 12 13 14 15 17 18 19 19 20 19 18 20 23 22 21 19 17 15 14 14 14 14 14 15 17 19 18 16 16 16 16 16 15 15 20 23 23 21 20 20 22 22 19 19 21 20 18 14 9 10 13 13 12 8 8 11 11 7 6 7 6 7 9
17 16 16 15 15 14 13 12 11 10 8 8 8 7 6 5 4 4 4 4 4 5 6 8 9 11 12 14 15 17 17 17 18 19 19 21 22 22 22 20 19 16 15 15 14 12 13 15 15 17 17 15 16 16 14 16 17 14 13 16 17 18 19 20 23 24 22 20 21 22 18 12 9 10 13 13 12 11 12 14 12 8 6 7 7 8 10
17 17 16 16 15 15 13 12 11 10 9 8 8 8 7 6 5 5 5 4 4 4 4 5 6 8 10 11 12 14 15 15 16 17 17 18 20 22 22 21 20 19 17 17 15 12 13 15 14 14 15 14 16 16 13 14 16 14 13 16 16 16 17 19 21 24 23 21 20 21 18 13 12 12 14 16 15 14 14 14 12 11 9 8 9 11 12
17 17 17 16 16 15 14 13 11 11 10 8 8 8 8 7 6 6 5 5 4 4 4 4 4 5 7 8 9 11 13 14 15 16 16 16 18 19 17 17 20 21 18 17 15 13 14 14 12 14 15 13 14 16 14 13 14 15 15 17 17 16 16 18 20 20 19 18 18 16 12 11 14 14 14 16 18 17 15 13 11 12 12 12 15 16 15
17 17 17 17 17 16 16 14 13 12 11 9 8 8 8 8 7 7 6 6 5 4 4 4 4 4 5 6 7 8 10 12 14 15 16 16 16 16 16 17 20 21 19 19 16 14 16 14 11 13 15 13 15 17 14 12 14 16 17 17 15 15 17 18 16 15 16 17 15 12 9 9 13 14 11 11 14 16 17 17 17 19 20 21 21 19 18
16 16 16 17 17 17 17 16 14 13 11 10 9 9 9 8 8 7 7 7 6 6 6 5 5 4 4 4 6 6 8 10 12 13 15 16 16 18 17 18 20 19 20 22 19 15 17 17 14 14 13 12 14 15 14 14 15 15 17 17 14 13 15 17 14 12 15 15 10 10 12 12 12 14 14 14 15 17 19 20 22 22 22 22 21 20 21
16 16 16 17 17 17 17 17 16 14 12 11 9 9 9 9 9 8 8 8 7 7 7 7 6 6 5 5 6 6 7 8 9 11 14 15 16 17 17 18 19 18 19 22 21 19 19 19 18 17 13 12 14 14 14 17 16 13 15 17 18 17 17 16 13 12 14 14 11 13 15 15 14 17 19 20 20 21 22 22 23 22 21 19 20 21 22
16 16 16 16 17 17 17 17 16 15 13 12 10 10 10 10 9 9 9 8 8 7 7 7 6 6 6 5 5 5 6 7 8 9 12 14 15 17 18 18 19 19 19 19 20 21 19 18 20 18 14 15 18 15 14 16 15 13 15 16 18 21 20 16 14 16 17 16 17 20 21 19 19 20 20 21 21 22 22 22 23 23 21 19 20 21 21
15 15 15 15 16 16 16 16 16 15 14 13 11 10 10 10 9 9 9 8 8 7 6 6 6 7 6 6 5 5 5 6 8 9 10 12 15 17 18 18 19 19 20 19 19 20 19 17 19 16 12 15 18 12 10 14 14 14 15 12 12 18 19 14 15 19 18 15 19 24 23 19 19 19 19 21 22 21 22 22 22 22 21 19 20 19 18
15 15 15 15 14 14 15 15 16 15 14 13 13 11 10 10 9 9 9 8 7 7 7 8 8 8 7 7 6 6 6 5 7 8 9 10 13 15 16 18 19 18 19 19 18 19 19 18 19 16 12 15 18 14 12 15 15 14 14 12 12 16 15 13 14 16 15 16 22 24 18 14 17 21 22 23 22 21 21 22 21 21 19 17 16 15 15
15 15 15 14 14 14 14 14 14 14 14 14 13 12 11 10 9 9 9 8 7 6 6 6 7 6 6 5 5 6 6 6 6 7 8 9 11 12 14 17 18 18 19 18 17 18 18 16 16 15 15 18 21 19 19 20 19 18 16 14 15 15 12 12 15 15 12 15 21 23 18 16 18 20 21 22 22 22 22 21 21 20 17 13 12 13 14
15 14 14 14 13 13 14 14 13 13 13 13 13 13 11 10 9 9 9 9 8 8 7 7 7 6 4 4 3 3 5 6 6 7 7 8 9 11 12 14 15 17 18 18 18 19 17 14 13 16 19 20 18 16 17 20 20 20 18 16 16 17 16 17 18 16 15 17 21 23 21 20 20 20 20 21 20 20 20 19 19 20 16 12 11 12 14
14 14 13 13 13 12 13 12 12 12 12 12 13 12 11 10 9 9 9 9 9 9 9 9 8 8 7 6 5 4 4 4 5 6 7 8 9 10 10 11 13 14 15 17 18 19 18 19 19 19 20 19 17 13 13 14 15 15 15 17 20 22 23 24 23 22 22 24 25 25 22 21 21 21 23 24 22 20 19 18 18 19 17 13 13 15 17
15 14 13 13 12 12 12 11 11 10 11 11 12 11 11 10 9 9 10 10 9 8 8 8 8 8 8 7 6 6 6 5 5 5 5 6 8 10 10 10 11 11 12 14 16 17 18 20 21 21 20 20 20 17 13 12 12 12 14 19 23 23 24 25 25 26 27 28 28 28 25 22 21 21 23 25 24 22 21 19 18 19 19 17 16 17 18
15 15 14 13 13 12 12 11 10 10 10 11 11 10 10 10 10 10 10 9 9 8 7 6 7 7 7 7 6 6 5 6 6 6 6 5 5 7 8 9 9 10 10 11 12 15 16 16 17 19 20 21 22 22 18 15 14 13 15 21 24 24 26 27 26 27 29 29 30 30 28 25 24 23 23 23 22 22 22 20 20 21 21 20 19 18 17
16 16 15 14 13 13 12 11 10 10 10 10 9 9 10 10 10 10 9 9 8 7 6 6 5 5 5 6 6 5 5 5 6 6 6 6 6 6 7 8 9 10 10 11 11 11 11 12 13 15 16 18 21 22 21 21 20 19 20 24 25 24 27 30 30 30 30 30 29 30 29 28 28 28 27 25 22 21 22 21 21 23 23 23 23 21 18
17 17 16 15 14 13 12 12 11 11 10 9 9 9 9 10 10 10 9 8 8 7 6 6 5 4 4 4 4 4 3 3 4 4 5 5 7 7 7 8 9 9 10 10 10 9 9 10 11 11 13 16 18 19 21 22 21 20 20 21 20 20 23 27 29 30 31 31 31 33 33 34 33 32 30 28 23 21 22 23 24 24 25 25 25 23 20
18 17 16 15 15 14 13 12 12 12 11 9 9 9 9 10 10 10 9 8 7 7 7 6 6 5 4 4 5 5 3 3 3 4 4 5 6 6 7 8 9 10 10 10 12 12 11 11 11 12 14 16 17 19 21 20 16 15 16 16 16 18 19 20 21 23 25 28 31 33 34 35 35 35 34 34 30 26 24 24 24 25 26 25 24 23 21
17 17 16 16 15 14 13 12 12 12 11 10 10 9 9 10 10 10 9 8 8 7 7 7 7 6 4 2 4 6 5 5 5 4 4 5 5 5 7 7 7 9 10 11 12 14 13 12 13 14 15 16 19 22 21 17 15 15 15 15 16 18 17 16 17 18 20 22 24 25 26 28 29 31 33 35 35 34 31 28 25 25 26 26 25 24 23
16 16 15 15 14 13 12 12 11 11 10 9 9 9 9 10 10 11 10 9 8 8 8 8 8 8 7 5 6 7 5 5 5 5 5 6 5 6 6 6 6 9 11 12 12 13 13 13 15 16 16 18 21 22 20 16 16 17 16 16 18 20 19 18 19 19 20 20 20 21 21 22 23 25 26 28 31 33 34 33 30 27 27 27 26 26 26
15 14 14 13 12 11 10 10 10 10 9 8 9 9 9 10 10 11 11 10 9 10 9 8 8 8 8 7 7 7 5 5 6 5 5 5 6 7 6 4 5 10 12 11 11 12 12 14 17 18 19 20 21 20 19 19 18 18 18 19 21 22 22 21 20 20 21 20 19 19 20 20 21 22 23 25 26 27 29 31 32 33 31 29 28 30 30
14 14 13 12 11 10 9 9 9 8 8 8 9 9 9 9 10 10 10 10 10 10 10 10 9 9 8 7 8 7 6 7 6 5 5 6 6 6 6 5 7 11 10 9 11 13 14 16 19 20 21 21 20 19 20 21 20 20 20 21 23 23 23 21 20 19 20 20 19 19 20 21 21 22 22 23 23 24 26 27 29 34 36 34 32 32 33
13 12 13 12 10 8 8 9 8 8 8 8 8 8 8 10 10 10 10 10 10 10 10 10 10 9 8 8 8 8 7 7 6 5 6 7 6 5 6 6 7 10 9 8 10 13 13 14 17 18 19 19 18 18 20 19 18 19 20 21 23 23 22 21 20 19 20 21 21 21 21 22 23 23 22 20 20 21 23 24 25 30 36 38 36 34 33
13 13 13 13 10 9 8 8 8 8 7 7 8 8 8 9 10 9 9 10 9 9 10 10 10 11 10 9 7 7 7 8 7 6 7 7 6 7 7 5 7 10 9 6 9 14 15 13 14 16 15 12 12 17 21 20 18 19 21 22 24 25 24 23 23 22 22 23 23 23 24 24 23 23 22 20 17 18 20 21 22 24 30 35 37 36 35
14 15 14 13 11 10 10 8 8 8 7 7 8 9 9 9 10 10 9 8 7 8 10 10 8 9 10 8 6 5 7 8 7 7 7 6 7 7 6 5 8 10 7 7 12 17 18 15 15 15 13 11 14 21 23 20 17 20 22 23 25 26 26 26 26 24 24 25 25 25 25 24 22 22 22 20 18 17 18 21 22 22 23 28 34 37 38
15 16 16 14 12 11 10 10 9 9 9 9 9 9 9 9 9 10 9 8 6 5 8 9 7 6 8 8 6 5 6 7 6 6 6 6 8 8 6 6 7 7 6 10 15 16 15 14 13 10 10 12 15 17 16 15 18 23 26 27 28 28 28 28 28 26 25 25 26 26 26 25 23 21 20 20 20 19 19 20 22 20 20 24 30 33 35
17 18 17 15 13 11 11 10 10 10 10 10 10 9 8 8 8 7 8 10 9 7 7 9 8 6 6 7 6 6 6 6 6 6 6 6 7 7 6 5 6 7 9 15 17 14 13 15 13 11 11 13 13 14 18 23 27 30 31 31 31 30 29 29 29 28 27 27 27 27 27 26 24 20 19 21 22 21 20 21 21 20 19 23 27 29 30
20 19 18 16 13 12 11 11 11 10 8 9 10 8 6 7 8 6 5 8 9 8 7 7 7 6 6 7 6 5 6 6 6 6 6 7 7 5 4 4 6 8 11 15 14 13 14 16 15 13 14 15 15 20 27 31 32 32 33 33 32 30 29 28 27 27 26 26 26 26 27 27 24 20 19 22 23 23 22 21 21 20 19 22 26 29 30
22 20 19 16 15 14 13 11 12 11 8 6 8 8 6 6 7 7 7 8 9 8 7 6 6 5 6 6 5 4 5 5 4 4 5 6 5 5 4 6 8 10 11 12 12 13 14 14 12 13 16 18 20 24 29 31 32 33 34 33 31 29 27 26 25 24 23 22 22 23 24 24 22 20 20 22 23 23 22 21 20 20 20 21 25 29 29
22 20 18 16 16 17 14 10 10 11 8 6 6 8 7 6 7 9 10 9 7 7 8 7 5 4 4 4 4 5 7 6 4 4 5 4 4 5 6 8 9 9 10 11 12 13 13 12 12 16 22 26 26 26 28 31 32 32 32 31 30 28 27 26 25 23 21 20 20 21 21 20 19 20 21 22 22 22 21 20 20 19 19 20 22 25 27
22 20 18 15 14 16 15 11 8 9 9 8 7 7 6 6 8 9 10 7 5 5 8 8 5 4 5 5 4 5 7 6 4 4 6 4 4 6 9 9 8 8 10 12 13 14 14 14 16 20 27 29 29 29 31 32 33 32 31 30 29 27 26 25 24 22 21 19 19 19 19 18 18 18 18 18 19 21 21 20 20 20 19 19 19 20 23
22 21 18 14 12 13 14 11 8 7 8 9 8 7 5 5 6 7 8 8 7 6 6 6 5 5 6 7 6 5 6 5 4 5 6 6 5 6 7 8 9 10 12 13 15 15 16 18 22 26 29 30 31 32 33 34 34 33 30 28 27 26 25 24 23 22 20 18 18 19 18 17 16 16 15 16 17 19 20 20 20 19 17 17 18 20 21
20 20 18 13 10 10 11 10 8 7 7 8 8 7 6 6 5 5 7 9 10 8 7 7 6 6 6 7 7 5 5 5 4 4 6 6 5 5 7 9 12 12 12 13 16 19 22 26 30 32 32 31 30 29 29 30 30 30 27 26 27 26 24 22 22 21 19 18 18 17 15 13 13 13 14 14 15 16 17 18 18 17 16 16 17 18 19
19 19 17 12 8 7 10 10 8 7 7 7 8 7 7 6 6 6 7 8 9 9 7 7 7 7 6 6 5 5 5 4 4 5 6 6 5 6 9 11 12 12 14 17 22 25 28 30 31 30 28 27 26 26 26 25 24 24 23 23 24 25 23 21 21 20 19 17 16 14 12 11 10 11 13 14 14 15 16 16 15 15 16 16 16 16 16
18 19 17 13 9 8 10 11 10 7 7 7 7 7 6 6 6 7 7 7 7 7 7 7 7 6 5 5 5 5 5 4 5 5 6 5 5 7 9 11 13 16 19 23 25 25 26 26 25 23 23 22 22 23 23 20 17 17 18 18 20 21 21 21 20 20 18 16 15 15 14 13 12 13 13 14 15 15 15 15 15 15 15 15 14 14 14
17 17 15 12 10 9 9 10 9 8 7 7 7 6 7 7 7 7 7 7 7 6 6 6 6 5 4 4 4 3 4 5 5 5 5 5 6 7 10 14 18 20 20 21 21 21 21 20 18 16 15 15 16 16 16 12 8 8 11 13 15 16 17 17 17 18 18 17 16 16 16 16 17 17 16 16 16 16 15 14 14 14 13 12 11 12 13
Wind_Direction
292 294 294 292 291 288 285 283 281 276 269 266 263 254 246 235 227 228 222 213 211 203 199 208 212 213 221 225 227 230 230 229 230 233 236 240 237 230 228 220 209 207 204 201 199 198 201 204 207 209 210 213 219 220 215 208 206 205 203 205 209 206 209 216 214 204 206 211 215 219 217 210 209 218 223 227 228 228 240 252 226 222 238 241 253 268 272
296 300 303 303 299 295 289 284 285 282 270 262 259 250 242 235 229 224 216 211 209 198 194 212 217 216 223 227 228 232 230 226 226 229 230 231 230 227 230 226 215 210 202 194 193 197 202 206 208 210 212 217 222 221 217 211 206 203 202 206 210 209 208 211 210 200 200 209 215 216 217 217 219 223 225 226 229 228 236 244 235 242 248 245 257 274 277
300 308 314 317 314 310 302 291 287 287 280 265 255 246 236 232 231 225 215 210 207 200 198 206 209 216 225 227 226 228 230 228 224 225 229 230 224 222 226 223 216 210 203 198 193 193 194 199 204 205 207 215 221 220 218 216 213 209 206 208 213 212 207 209 211 210 206 208 214 213 212 217 223 226 224 224 224 223 228 233 230 239 245 238 246 266 282
302 308 315 319 319 319 318 311 297 286 283 276 261 244 230 223 221 218 212 210 210 208 208 205 203 215 223 223 227 224 224 229 225 223 228 231 227 224 225 221 219 215 208 203 200 198 195 193 198 199 201 209 213 213 215 216 215 214 211 208 210 213 212 213 216 220 223 224 223 218 217 219 219 220 222 223 222 221 225 233 235 237 240 239 245 258 274
303 306 310 314 314 316 321 326 316 292 280 278 266 245 226 215 212 211 207 208 211 214 217 213 212 220 221 222 229 224 218 226 226 222 225 229 228 227 227 221 216 217 211 205 204 204 202 202 201 198 199 205 207 205 208 213 214 215 212 204 203 210 216 217 219 223 230 236 235 224 223 227 224 223 223 221 219 217 220 229 237 240 245 251 252 252 262
303 306 310 312 310 311 315 320 321 313 297 281 265 245 225 214 213 213 207 202 204 210 217 217 216 220 221 223 228 223 217 221 220 220 222 226 228 227 229 225 217 209 204 202 202 205 205 207 206 202 202 204 204 204 207 210 213 214 212 208 207 213 219 220 221 226 231 235 238 237 233 232 232 231 225 220 218 218 221 227 234 243 250 258 268 262 261
302 305 310 313 310 310 311 312 314 316 313 294 268 247 228 217 215 214 210 209 210 213 219 219 219 222 224 226 229 225 218 215 215 218 219 225 229 223 218 224 220 210 203 201 201 205 206 205 206 206 206 204 202 205 209 210 212 213 212 213 215 217 223 226 223 225 231 234 237 238 235 230 232 231 223 217 217 218 222 227 233 242 249 255 267 271 269
301 304 308 313 314 310 308 309 308 308 316 312 280 255 236 221 217 215 213 215 217 219 220 219 219 224 225 227 232 230 225 219 215 215 213 218 226 222 217 223 222 215 209 205 202 204 202 201 206 208 206 207 205 204 209 214 213 212 209 209 212 215 224 229 222 218 229 234 235 233 228 223 223 220 212 209 209 211 218 227 233 240 248 256 263 269 274
297 302 306 310 313 312 307 306 305 303 311 317 297 267 244 225 219 218 215 216 217 217 219 216 214 220 223 223 227 228 226 222 217 216 217 218 223 223 223 225 224 221 220 216 211 210 206 206 212 211 208 211 208 201 204 209 205 206 211 208 203 206 217 223 216 214 223 228 226 217 211 212 211 205 200 200 203 210 219 226 235 240 248 260 264 267 275
293 298 304 307 310 311 307 303 302 300 302 305 302 282 256 235 224 221 218 218 218 216 217 215 209 216 222 219 220 223 223 222 218 216 220 222 223 225 226 225 222 222 225 222 219 219 218 215 216 216 215 216 215 209 210 214 208 200 209 213 201 202 212 212 211 217 218 211 206 198 197 209 214 208 205 206 211 219 225 228 238 244 243 247 257 264 273
291 294 298 302 306 308 304 301 299 298 301 298 295 294 272 248 233 223 218 219 220 216 214 212 210 216 221 218 217 218 217 217 216 213 215 219 221 224 227 224 218 218 222 223 223 224 225 222 220 221 220 220 221 220 220 223 221 211 208 211 206 208 214 212 215 225 215 189 192 200 207 223 231 220 215 218 221 224 229 235 240 242 238 243 258 269 278
288 290 292 294 298 303 301 298 295 292 295 293 285 293 286 262 245 230 217 215 219 217 214 216 217 219 221 218 215 216 214 214 215 215 216 219 219 221 223 220 215 216 220 221 221 223 224 223 223 224 225 225 225 225 225 226 228 224 216 213 212 215 216 214 220 229 219 192 199 215 226 237 241 221 210 214 220 224 230 238 238 237 240 252 267 276 282
285 285 287 287 289 294 296 295 292 288 288 287 278 278 284 273 256 239 222 215 218 219 218 221 221 221 222 221 219 218 216 214 214 214 215 218 218 217 217 216 214 215 216 216 217 219 220 221 223 225 227 229 228 227 226 226 227 227 223 218 216 215 216 218 219 219 213 205 211 226 240 231 214 202 202 212 218 216 223 234 237 237 244 257 272 278 281
282 282 282 282 282 284 287 288 289 286 282 283 278 271 276 276 264 250 233 222 221 223 222 223 223 221 222 223 222 221 219 215 213 213 212 214 217 215 212 211 211 211 212 212 211 212 214 216 219 222 224 225 226 227 228 230 231 230 228 226 222 217 217 222 222 219 219 222 225 232 239 223 209 210 224 236 230 218 226 244 248 244 245 259 272 276 275
280 280 279 279 278 278 279 279 283 283 278 277 276 269 270 271 263 258 246 228 225 226 226 226 227 224 223 224 223 222 221 218 216 215 213 213 216 216 213 209 208 209 210 210 208 204 204 208 211 214 216 218 221 224 225 230 233 231 231 231 227 221 218 219 221 222 227 234 237 237 241 246 244 240 240 242 233 221 228 249 259 255 252 261 269 270 269
276 277 278 278 276 275 275 274 274 276 273 271 271 267 265 266 262 260 258 237 225 228 231 231 231 228 225 224 224 224 224 222 220 219 219 219 217 217 215 210 207 207 206 207 206 201 202 209 213 216 219 219 222 223 222 225 230 232 233 232 229 227 222 218 222 225 226 233 239 239 244 252 247 230 223 220 215 215 234 258 266 259 248 251 260 266 267
271 273 275 276 275 274 272 271 270 270 268 263 261 262 261 260 261 259 259 248 229 229 234 234 232 230 227 224 224 225 226 226 223 219 220 223 221 219 219 215 212 211 207 205 203 204 211 216 217 222 224 219 218 223 224 223 223 226 230 229 227 226 220 217 226 231 228 233 242 245 250 256 241 210 211 212 209 219 249 262 263 255 236 244 260 273 272
269 269 270 272 273 273 271 270 269 266 265 260 255 255 256 254 254 253 255 259 246 235 235 233 231 232 229 226 226 226 226 226 225 222 223 227 226 224 223 221 217 216 214 210 207 208 218 219 218 223 224 216 216 223 225 224 223 221 219 218 218 219 219 221 229 233 230 231 241 246 247 247 229 210 213 218 224 240 256 259 258 255 254 260 269 278 278
267 267 267 267 269 271 270 270 269 264 261 258 252 250 250 249 249 248 250 255 252 245 243 235 229 230 231 229 228 227 225 224 224 222 222 226 227 226 227 226 224 220 217 215 212 214 221 221 219 222 222 216 217 222 222 224 226 221 216 217 217 216 219 223 228 234 234 232 238 245 245 239 231 225 227 235 244 252 261 266 263 252 248 262 276 280 277
264 265 266 265 266 268 268 267 266 263 259 254 248 247 246 245 242 242 247 251 248 250 254 245 229 224 228 229 225 223 223 221 219 218 217 220 223 222 223 226 225 222 217 214 215 220 223 222 220 222 221 216 215 219 223 225 221 214 214 221 222 221 224 228 229 232 235 234 236 242 243 233 231 233 237 243 248 251 256 263 262 252 252 267 278 277 269
262 263 265 265 264 264 265 264 263 262 259 253 247 243 242 242 240 239 244 248 250 252 254 250 239 227 228 230 228 226 222 218 218 217 215 217 218 213 212 219 221 220 217 211 209 213 218 217 217 221 221 218 217 220 223 223 219 216 217 220 221 223 229 233 231 229 234 238 239 238 235 223 215 215 219 229 236 239 241 247 256 261 267 274 273 266 256
259 260 261 262 262 261 262 262 261 261 260 255 249 242 239 238 236 236 241 246 251 256 255 255 253 242 235 232 229 230 225 217 217 216 213 213 213 210 212 218 219 218 217 213 208 210 215 215 218 223 222 221 222 221 220 222 225 225 224 224 223 221 224 227 225 226 233 238 234 222 223 221 209 206 217 230 242 251 254 258 265 270 275 276 266 252 246
254 255 255 256 257 258 260 260 259 259 259 256 252 246 241 236 231 229 233 239 246 258 264 267 266 256 250 243 232 229 225 217 214 214 211 209 210 211 212 214 215 215 215 213 213 216 217 216 217 219 219 219 221 222 226 232 235 228 222 227 229 229 231 230 227 229 232 234 232 226 228 234 240 247 255 258 261 266 269 270 274 274 273 267 255 246 246
249 250 251 251 252 253 255 257 257 257 255 254 254 249 244 242 234 227 228 232 239 252 263 269 267 256 250 244 233 226 223 218 215 214 211 206 206 210 211 210 212 213 212 213 216 217 217 217 216 216 220 223 221 223 230 233 232 225 222 227 231 233 234 233 232 241 245 246 250 249 249 254 259 261 265 265 265 269 272 272 272 269 263 256 249 246 248
245 246 247 248 249 250 251 252 253 254 253 252 252 249 246 246 241 234 231 231 234 243 253 262 263 255 248 243 236 228 221 216 218 220 216 208 207 210 211 210 210 212 211 212 215 214 213 215 213 211 222 225 217 217 227 227 226 227 224 223 226 231 234 234 237 246 249 247 251 253 252 255 258 257 260 264 266 270 272 269 267 263 256 251 249 249 250
244 244 245 246 246 247 248 248 248 250 250 249 249 248 245 243 243 241 238 235 236 242 250 256 257 254 251 248 245 240 228 214 216 222 221 217 212 211 212 212 211 212 211 211 213 213 213 216 213 210 221 224 216 215 225 225 224 224 220 217 221 226 232 235 236 241 242 240 246 249 245 241 250 257 262 264 265 267 265 262 261 257 252 248 248 246 244
242 242 242 242 242 242 244 244 245 245 246 246 246 246 245 242 240 239 237 235 235 234 231 233 235 235 238 240 244 245 235 222 217 217 217 221 218 213 214 213 211 213 213 211 212 213 212 216 219 220 226 228 224 226 232 232 229 226 224 228 230 228 230 235 235 238 241 240 243 244 235 228 237 247 253 254 255 256 255 253 253 250 244 240 243 242 238
241 240 239 238 237 238 239 240 241 241 242 244 243 242 243 242 239 238 235 231 230 228 225 231 238 242 246 242 241 245 235 226 225 222 218 219 219 216 217 214 212 214 214 212 215 216 210 209 219 225 228 229 227 232 239 239 237 236 235 237 237 232 230 232 232 229 229 233 239 241 236 232 234 239 242 244 245 245 243 242 244 244 237 228 231 239 240
240 237 235 233 231 232 234 235 235 235 236 240 241 240 241 241 237 236 234 229 228 230 235 246 254 258 261 256 245 239 235 229 227 224 219 217 216 217 217 215 214 216 215 214 218 220 216 215 220 225 229 230 227 230 239 240 241 242 238 234 234 235 236 237 236 232 230 233 240 244 244 241 240 240 243 244 245 246 242 235 233 234 228 218 224 236 245
236 233 230 228 225 225 228 229 229 230 231 235 238 238 239 240 236 233 233 231 229 231 235 244 253 258 261 259 251 244 243 236 228 224 221 215 213 214 216 217 217 218 218 219 222 225 225 226 229 232 235 235 231 232 238 240 239 239 237 235 235 238 242 243 243 243 242 243 245 249 251 251 246 241 241 243 244 244 241 234 230 228 221 215 222 235 247
233 230 228 226 222 221 223 222 222 223 226 230 234 235 236 236 233 230 231 230 228 230 232 236 247 259 264 263 255 246 240 233 230 231 228 219 215 216 218 219 218 218 218 219 222 226 230 233 234 235 238 239 238 237 239 241 237 233 240 246 244 243 246 247 247 248 249 249 248 248 250 252 250 244 240 239 239 241 241 239 236 233 226 221 223 232 244
231 229 227 226 223 220 219 219 217 219 221 225 229 231 232 233 230 227 225 225 225 225 222 219 227 248 264 262 253 241 230 224 225 228 226 221 217 215 215 217 221 223 223 223 225 230 233 231 231 233 236 239 241 241 241 242 240 238 245 253 255 253 252 251 249 249 250 251 252 252 251 250 250 248 245 243 242 243 244 240 237 236 235 232 232 235 241
232 229 228 226 223 221 220 219 217 218 218 218 221 226 229 230 229 225 223 224 222 216 210 205 203 216 239 252 250 239 222 205 204 212 220 220 216 216 218 221 225 228 230 232 233 234 231 227 227 231 234 238 242 244 243 245 247 248 253 259 260 256 253 252 250 250 252 254 256 257 255 253 251 251 251 249 246 244 244 242 238 237 238 238 237 238 241
232 229 227 225 224 222 221 220 220 221 218 214 217 222 224 226 228 226 224 223 217 209 204 195 187 196 222 248 256 250 238 219 211 210 216 220 218 219 224 228 234 239 241 243 244 243 239 238 240 242 244 248 250 249 250 254 260 260 259 260 258 254 254 256 257 255 254 254 257 259 261 260 259 257 255 253 249 245 244 242 237 235 235 235 235 235 237
230 228 225 224 223 222 221 221 222 224 219 211 212 215 216 221 226 226 224 220 214 206 202 194 187 186 186 218 252 249 240 235 234 226 225 232 230 224 228 234 242 249 247 246 250 252 252 250 249 248 249 250 251 254 260 268 271 268 263 261 260 260 260 261 262 260 257 257 259 262 265 267 267 264 261 257 253 249 246 242 237 233 231 229 230 232 234
224 222 219 218 218 220 221 221 222 225 222 212 207 208 209 213 218 221 221 218 211 205 199 194 192 187 175 183 227 241 238 237 240 235 236 242 241 241 245 246 249 256 257 255 255 259 263 261 256 253 251 249 252 261 271 273 269 268 269 267 268 270 269 267 266 266 266 265 264 265 266 267 269 270 268 264 261 256 251 246 240 236 233 227 225 230 234
215 213 211 210 209 211 214 216 219 223 221 210 202 202 204 205 209 214 216 214 210 208 202 194 195 195 188 196 220 228 221 229 240 246 252 252 246 249 253 239 238 257 269 273 269 267 267 264 259 258 257 256 258 265 271 271 269 270 270 269 272 276 277 275 274 272 270 269 268 267 265 262 262 265 266 266 265 262 258 251 242 237 236 230 224 227 234
209 207 202 197 198 201 205 210 217 218 213 205 200 198 201 202 204 209 213 211 209 209 205 201 203 202 199 209 223 223 221 229 237 247 255 250 247 254 256 243 246 258 267 273 273 271 268 269 272 272 271 271 273 273 271 272 275 275 274 275 277 277 277 277 276 273 271 271 269 268 267 265 263 262 262 263 264 263 262 259 248 239 236 234 230 230 233
200 197 191 184 186 194 201 208 215 211 205 201 195 191 196 200 200 203 209 209 207 208 207 208 211 210 208 217 226 223 220 222 221 229 242 240 236 243 243 239 256 267 266 265 271 272 269 271 277 280 281 286 290 285 279 279 281 280 278 278 278 276 275 274 273 271 271 271 271 271 272 272 271 270 267 265 265 263 262 264 259 247 240 238 236 235 234
190 185 180 177 181 190 195 199 201 196 191 189 184 185 192 193 192 198 205 204 205 209 207 207 214 218 216 219 226 221 214 213 210 215 229 232 230 236 239 239 256 268 269 262 264 271 272 270 267 271 280 289 286 280 284 292 293 287 281 276 274 273 273 272 271 270 271 271 272 273 274 275 276 277 276 273 268 260 256 258 260 254 245 241 240 239 239
185 179 174 174 181 187 184 179 178 180 181 182 182 184 186 187 192 199 196 188 197 215 211 203 209 220 217 215 218 214 209 212 215 216 221 230 234 234 238 251 259 266 272 263 261 270 277 276 271 275 280 274 268 278 291 299 292 280 275 271 270 271 271 271 271 271 271 273 274 274 274 276 277 276 275 274 267 256 250 251 255 255 248 242 240 241 243
179 172 171 177 183 183 174 167 168 175 183 185 184 182 183 188 195 196 186 177 186 212 207 197 196 207 211 210 213 214 210 212 217 214 214 233 244 239 235 251 261 264 265 262 264 272 279 277 278 289 289 277 277 287 292 281 268 267 270 270 270 270 271 272 273 272 272 274 275 276 276 277 277 273 270 267 263 257 251 251 255 256 250 243 240 242 245
173 168 169 175 177 172 166 166 170 176 184 187 184 181 182 188 190 187 189 196 200 199 198 199 199 202 210 214 219 225 222 220 226 228 227 240 252 251 248 257 263 262 263 267 271 275 275 273 277 286 284 280 282 280 272 269 272 276 277 275 273 272 272 273 274 275 273 272 272 274 275 276 276 273 265 258 257 256 253 253 258 261 256 247 242 243 247
170 167 166 167 167 164 163 169 176 179 184 186 181 173 175 185 182 174 185 201 200 190 190 196 195 199 217 225 225 230 232 229 235 248 249 251 259 262 254 257 266 270 276 280 281 279 277 279 283 286 283 278 272 268 269 274 278 279 277 276 276 277 278 278 277 277 276 274 272 272 272 272 272 270 262 255 253 252 253 255 262 266 263 252 244 242 244
168 167 166 166 170 170 169 177 185 185 181 176 171 169 171 175 176 179 187 192 191 190 194 191 178 185 213 222 220 230 245 243 240 250 257 261 269 270 260 266 277 282 284 285 280 276 278 285 295 295 286 276 268 270 274 277 278 276 275 274 273 273 273 274 274 273 274 275 274 272 269 268 269 268 261 253 248 248 249 253 260 266 268 263 255 250 248
168 169 170 174 177 175 173 179 186 184 178 166 163 173 178 173 177 192 198 190 181 190 199 194 176 178 206 209 205 232 250 248 240 254 268 272 277 275 275 283 289 288 283 277 271 271 281 296 303 293 281 275 275 280 283 282 280 278 275 273 271 268 265 267 270 272 271 272 272 271 269 267 265 263 259 252 245 243 244 248 254 261 266 266 260 255 253
168 170 174 181 184 180 177 175 174 180 184 179 171 176 181 175 179 193 194 182 169 192 202 197 187 195 214 216 220 249 263 257 244 259 272 274 274 283 289 291 283 271 269 273 276 282 292 298 291 282 278 281 287 292 290 285 282 279 275 272 271 268 264 263 265 267 268 267 267 267 267 265 260 256 252 245 238 237 241 245 250 254 256 254 250 247 247
171 173 177 183 186 182 179 176 174 181 189 188 186 186 180 170 178 190 190 185 186 193 197 199 198 206 221 224 222 238 262 264 258 270 279 277 279 289 293 285 272 268 272 279 285 291 295 294 290 288 290 293 295 293 289 285 282 278 272 268 266 264 261 259 258 258 260 261 259 259 260 260 254 247 242 236 233 235 239 242 246 249 249 247 247 247 246
175 177 180 185 187 183 180 180 182 184 186 191 198 197 181 171 183 193 191 191 192 184 178 189 199 205 221 229 227 239 264 272 273 283 285 283 287 293 286 279 281 288 293 293 293 296 299 299 299 299 299 297 294 291 288 286 283 277 269 261 257 257 257 258 257 255 254 253 254 254 253 251 245 237 230 225 226 230 234 237 240 243 245 245 247 251 252
180 181 182 183 184 182 180 180 181 180 181 190 200 198 184 178 188 194 192 196 198 192 189 201 212 219 231 239 248 268 278 269 264 277 281 280 282 279 275 279 289 299 304 304 303 303 302 300 299 300 301 301 299 295 292 288 282 275 268 260 256 255 256 256 255 252 247 243 245 248 248 245 238 228 220 215 216 221 228 232 235 240 245 247 250 254 255
181 185 186 185 183 181 180 181 181 176 173 179 190 195 189 184 188 192 194 197 200 201 206 217 226 234 244 255 267 277 271 263 271 283 284 283 277 269 270 284 297 304 307 310 310 307 303 302 303 305 308 308 304 298 294 290 280 270 264 260 257 256 254 250 246 243 238 231 230 236 239 235 226 218 214 213 213 215 220 226 233 239 245 251 255 256 249
180 186 189 190 189 184 182 183 183 178 170 171 179 187 188 187 190 193 191 191 195 201 208 219 230 237 245 252 256 255 261 276 287 287 280 284 290 290 292 299 306 310 314 315 311 305 304 308 315 319 320 317 311 306 306 308 300 279 268 263 258 254 249 242 237 235 232 229 229 235 238 234 226 220 218 217 216 215 216 221 229 236 240 243 244 242 237
Height
3099 3099 3098 3097 3097 3097 3097 3096 3096 3096 3096 3095 3096 3096 3098 3098 3099 3099 3100 3101 3103 3104 3107 3108 3108 3110 3111 3111 3112 3113 3114 3116 3118 3119 3119 3120 3121 3121 3122 3122 3123 3125 3125 3126 3128 3129 3131 3133 3134 3136 3138 3139 3140 3141 3143 3145 3147 3150 3152 3153 3155 3156 3158 3158 3159 3161 3162 3162 3164 3166 3166 3168 3169 3169 3170 3171 3171 3172 3172 3171 3173 3175 3175 3176 3176 3173 3171
3097 3097 3096 3095 3095 3094 3094 3094 3094 3093 3093 3093 3093 3094 3095 3096 3097 3097 3098 3099 3100 3102 3105 3106 3107 3108 3109 3109 3110 3111 3111 3113 3115 3117 3118 3118 3119 3120 3121 3121 3122 3122 3123 3124 3126 3127 3129 3130 3132 3134 3136 3137 3138 3140 3142 3144 3146 3148 3150 3150 3151 3153 3154 3155 3156 3158 3160 3161 3162 3163 3164 3165 3166 3167 3168 3169 3169 3170 3170 3171 3172 3172 3172 3173 3173 3170 3169
3095 3095 3094 3094 3093 3092 3092 3092 3091 3091 3091 3091 3091 3092 3093 3094 3095 3096 3097 3098 3098 3100 3102 3104 3106 3107 3107 3108 3109 3109 3110 3111 3112 3114 3115 3116 3117 3118 3119 3120 3120 3120 3121 3122 3124 3125 3127 3129 3130 3132 3134 3135 3136 3138 3140 3142 3143 3145 3147 3148 3149 3150 3151 3152 3152 3152 3154 3155 3156 3158 3160 3162 3164 3164 3165 3166 3167 3168 3169 3169 3171 3170 3170 3172 3172 3169 3169
3094 3094 3093 3092 3091 3091 3090 3090 3090 3089 3089 3089 3089 3090 3091 3092 3093 3094 3095 3096 3096 3097 3099 3100 3103 3105 3105 3106 3106 3107 3109 3109 3110 3112 3113 3114 3115 3116 3117 3118 3119 3119 3121 3122 3123 3124 3126 3128 3129 3131 3133 3133 3134 3136 3138 3139 3141 3142 3143 3145 3147 3148 3148 3149 3149 3149 3149 3151 3152 3154 3157 3159 3159 3160 3161 3162 3164 3166 3166 3167 3168 3168 3168 3169 3169 3169 3169
3092 3092 3092 3091 3090 3090 3089 3089 3088 3087 3087 3087 3087 3088 3089 3090 3091 3092 3093 3094 3095 3096 3097 3098 3100 3102 3103 3104 3104 3105 3107 3108 3109 3110 3111 3112 3114 3115 3116 3117 3118 3119 3120 3121 3122 3124 3125 3126 3128 3130 3132 3132 3133 3134 3136 3137 3138 3139 3141 3143 3144 3145 3146 3146 3147 3148 3148 3149 3150 3153 3154 3155 3156 3157 3158 3159 3161 3162 3164 3164 3164 3166 3166 3165 3166 3168 3168
3091 3091 3090 3090 3089 3088 3088 3087 3086 3086 3085 3085 3086 3086 3087 3088 3088 3089 3091 3092 3092 3093 3094 3095 3097 3099 3100 3102 3102 3104 3105 3106 3107 3108 3109 3110 3112 3113 3115 3115 3116 3117 3118 3120 3121 3122 3123 3125 3127 3128 3129 3131 3132 3133 3134 3135 3135 3137 3138 3140 3142 3143 3143 3144 3145 3146 3147 3148 3149 3150 3152 3152 3153 3155 3156 3157 3157 3159 3160 3161 3162 3164 3164 3163 3164 3165 3165
3089 3089 3089 3088 3088 3087 3086 3086 3085 3085 3084 3084 3084 3084 3085 3086 3087 3087 3089 3089 3089 3090 3091 3093 3095 3097 3098 3100 3100 3102 3104 3104 3105 3106 3107 3109 3109 3111 3113 3113 3114 3115 3117 3118 3120 3121 3122 3123 3125 3126 3127 3129 3130 3131 3132 3133 3134 3135 3136 3137 3139 3140 3141 3142 3143 3144 3144 3145 3146 3147 3149 3150 3151 3152 3153 3154 3155 3156 3157 3158 3160 3161 3162 3162 3162 3163 3162
3088 3087 3087 3087 3086 3086 3085 3085 3084 3084 3083 3083 3083 3083 3083 3084 3085 3085 3087 3087 3088 3089 3090 3092 3094 3095 3096 3098 3099 3100 3102 3103 3104 3105 3106 3107 3107 3108 3110 3111 3112 3114 3116 3117 3118 3119 3120 3121 3122 3124 3125 3127 3128 3130 3131 3132 3132 3133 3134 3135 3136 3138 3139 3140 3141 3142 3142 3142 3143 3145 3146 3147 3148 3149 3150 3152 3153 3154 3155 3156 3157 3158 3158 3159 3160 3160 3159
3086 3086 3085 3085 3085 3084 3083 3083 3083 3083 3082 3081 3081 3082 3082 3082 3083 3084 3085 3085 3086 3088 3089 3090 3093 3094 3095 3096 3097 3098 3099 3101 3102 3103 3104 3104 3105 3106 3107 3109 3111 3113 3114 3115 3116 3117 3119 3120 3121 3122 3124 3125 3126 3128 3129 3130 3131 3132 3133 3133 3134 3136 3137 3137 3139 3140 3140 3141 3142 3143 3144 3146 3146 3146 3147 3149 3150 3151 3153 3153 3154 3155 3156 3157 3157 3157 3158
3084 3084 3084 3083 3083 3083 3082 3082 3082 3082 3081 3080 3080 3081 3081 3081 3081 3082 3083 3084 3085 3086 3087 3089 3091 3092 3092 3093 3094 3096 3097 3099 3100 3102 3102 3102 3103 3104 3105 3107 3109 3111 3111 3112 3114 3116 3117 3119 3120 3121 3122 3123 3125 3126 3127 3128 3129 3130 3131 3132 3133 3134 3135 3136 3137 3137 3137 3140 3141 3142 3144 3143 3142 3143 3145 3146 3148 3149 3150 3151 3152 3152 3154 3154 3154 3155 3155
3082 3082 3082 3082 3082 3081 3081 3081 3080 3080 3080 3079 3079 3079 3079 3079 3080 3080 3081 3083 3083 3085 3086 3087 3089 3089 3089 3091 3092 3093 3095 3096 3098 3099 3100 3100 3102 3103 3104 3105 3107 3108 3108 3110 3112 3114 3116 3117 3118 3120 3121 3122 3123 3124 3125 3126 3127 3128 3130 3131 3132 3132 3133 3134 3136 3136 3136 3138 3140 3142 3142 3139 3138 3140 3143 3144 3146 3147 3147 3148 3150 3151 3151 3151 3152 3152 3152
3080 3080 3080 3080 3080 3080 3080 3079 3079 3079 3079 3078 3078 3078 3078 3078 3078 3079 3079 3081 3081 3083 3084 3085 3085 3086 3088 3089 3090 3091 3093 3094 3095 3097 3098 3099 3100 3101 3102 3103 3104 3105 3106 3108 3110 3112 3113 3115 3117 3118 3119 3120 3122 3123 3124 3124 3125 3126 3127 3129 3130 3131 3131 3133 3134 3135 3136 3137 3139 3139 3137 3135 3136 3139 3140 3141 3143 3144 3145 3146 3148 3149 3149 3149 3149 3149 3149
3077 3077 3077 3077 3078 3078 3078 3078 3078 3077 3077 3077 3077 3077 3077 3077 3077 3077 3078 3079 3079 3080 3081 3082 3083 3085 3086 3087 3088 3089 3091 3092 3093 3095 3096 3097 3098 3099 3100 3101 3102 3103 3105 3106 3108 3110 3111 3113 3114 3116 3117 3119 3120 3121 3121 3122 3123 3124 3125 3126 3128 3129 3130 3131 3133 3133 3134 3135 3136 3136 3134 3134 3136 3137 3137 3139 3140 3141 3142 3144 3145 3146 3147 3146 3146 3146 3146
3075 3075 3075 3075 3075 3076 3076 3076 3076 3076 3076 3076 3076 3076 3076 3076 3076 3076 3076 3077 3077 3078 3079 3080 3081 3082 3084 3085 3087 3088 3089 3090 3092 3093 3094 3095 3096 3097 3099 3100 3101 3102 3103 3104 3106 3108 3110 3111 3113 3114 3115 3117 3118 3118 3119 3120 3121 3122 3123 3124 3125 3127 3128 3130 3131 3131 3131 3131 3131 3133 3134 3134 3135 3135 3136 3137 3138 3139 3140 3141 3142 3144 3144 3144 3144 3143 3143
3072 3072 3073 3073 3073 3073 3074 3074 3074 3074 3075 3075 3075 3075 3075 3075 3075 3075 3075 3075 3076 3076 3077 3078 3079 3080 3082 3083 3085 3086 3087 3089 3090 3091 3092 3093 3094 3096 3097 3098 3100 3101 3102 3103 3104 3106 3108 3110 3111 3112 3112 3114 3115 3116 3117 3118 3118 3119 3121 3122 3123 3124 3125 3127 3128 3128 3129 3128 3129 3131 3131 3130 3132 3135 3135 3136 3137 3138 3138 3139 3140 3141 3141 3141 3141 3141 3140
3070 3070 3070 3070 3071 3071 3071 3072 3072 3073 3073 3073 3074 3074 3074 3074 3074 3074 3074 3074 3074 3075 3075 3076 3077 3079 3080 3081 3082 3083 3085 3086 3088 3090 3091 3092 3092 3094 3095 3097 3098 3099 3100 3102 3103 3105 3106 3107 3108 3108 3109 3110 3112 3113 3115 3116 3117 3117 3118 3119 3121 3122 3123 3124 3125 3126 3126 3126 3126 3127 3126 3126 3130 3132 3133 3134 3135 3135 3136 3136 3136 3137 3138 3138 3138 3138 3138
3067 3068 3068 3068 3068 3069 3069 3070 3070 3071 3071 3072 3072 3072 3072 3073 3073 3073 3073 3073 3073 3073 3074 3074 3075 3077 3078 3079 3080 3081 3082 3084 3086 3088 3089 3089 3090 3092 3093 3095 3097 3098 3099 3100 3102 3103 3104 3105 3106 3106 3107 3108 3110 3111 3112 3114 3115 3115 3116 3117 3118 3119 3120 3121 3121 3122 3124 3124 3123 3123 3124 3126 3127 3129 3130 3131 3132 3133 3135 3134 3133 3135 3136 3135 3136 3136 3136
3064 3065 3065 3065 3066 3066 3067 3067 3068 3069 3069 3070 3070 3071 3071 3071 3071 3071 3071 3072 3072 3072 3072 3073 3074 3075 3076 3077 3077 3078 3080 3081 3083 3085 3086 3087 3088 3090 3091 3093 3095 3096 3098 3099 3100 3102 3103 3103 3104 3105 3105 3106 3108 3109 3110 3111 3112 3113 3114 3115 3116 3116 3117 3118 3118 3119 3120 3122 3121 3121 3123 3124 3125 3127 3128 3128 3130 3132 3132 3130 3131 3133 3134 3133 3133 3135 3135
3061 3062 3062 3063 3063 3064 3064 3065 3066 3067 3067 3068 3069 3069 3069 3069 3070 3070 3070 3070 3071 3071 3071 3072 3072 3073 3074 3075 3076 3077 3078 3079 3080 3082 3084 3085 3086 3088 3089 3091 3093 3094 3096 3097 3099 3100 3101 3101 3102 3103 3104 3105 3106 3107 3108 3108 3109 3111 3113 3114 3114 3114 3115 3115 3116 3116 3117 3118 3118 3119 3120 3121 3123 3125 3125 3125 3127 3129 3128 3127 3129 3131 3131 3130 3131 3132 3133
3059 3059 3059 3060 3061 3061 3062 3063 3064 3064 3065 3066 3067 3067 3067 3068 3068 3068 3069 3069 3070 3070 3070 3070 3071 3071 3072 3073 3074 3074 3075 3077 3078 3079 3081 3082 3083 3086 3088 3089 3090 3091 3093 3095 3097 3098 3099 3100 3100 3101 3102 3104 3104 3105 3106 3107 3107 3109 3110 3111 3111 3112 3112 3112 3113 3114 3114 3115 3116 3117 3118 3118 3120 3123 3123 3123 3124 3125 3125 3125 3126 3127 3127 3128 3128 3128 3129
3056 3057 3057 3057 3058 3058 3059 3060 3061 3062 3063 3064 3065 3065 3066 3066 3066 3067 3067 3068 3068 3069 3069 3069 3070 3070 3071 3071 3072 3073 3073 3074 3075 3076 3078 3079 3081 3083 3085 3085 3086 3089 3090 3092 3094 3095 3096 3097 3098 3099 3100 3101 3102 3103 3104 3105 3106 3107 3108 3108 3109 3110 3110 3110 3111 3112 3113 3114 3114 3115 3115 3116 3118 3120 3120 3120 3121 3121 3122 3123 3123 3123 3124 3124 3124 3124 3125
3054 3054 3055 3055 3055 3056 3056 3057 3058 3059 3061 3062 3063 3063 3064 3064 3065 3065 3066 3066 3067 3067 3068 3068 3068 3069 3069 3070 3070 3071 3072 3073 3073 3074 3075 3077 3078 3080 3081 3082 3084 3086 3088 3089 3091 3092 3093 3095 3096 3097 3099 3100 3100 3101 3102 3103 3104 3105 3106 3106 3106 3107 3107 3108 3110 3111 3112 3113 3113 3113 3114 3115 3116 3117 3118 3118 3118 3119 3119 3120 3120 3120 3121 3121 3120 3120 3120
3051 3052 3052 3053 3053 3053 3054 3055 3056 3057 3058 3059 3060 3061 3062 3063 3063 3064 3064 3065 3066 3066 3066 3067 3067 3067 3068 3069 3069 3069 3070 3071 3072 3072 3073 3075 3076 3077 3079 3080 3082 3083 3085 3086 3088 3089 3091 3092 3093 3095 3097 3097 3098 3100 3100 3101 3103 3104 3105 3105 3104 3105 3106 3107 3108 3109 3110 3111 3111 3111 3112 3113 3114 3115 3115 3115 3116 3116 3116 3116 3116 3117 3117 3117 3116 3116 3116
3049 3049 3050 3050 3051 3051 3052 3053 3053 3054 3056 3057 3058 3059 3060 3060 3062 3062 3063 3064 3064 3065 3065 3065 3066 3066 3067 3067 3068 3068 3069 3069 3070 3070 3071 3073 3074 3075 3076 3077 3079 3081 3082 3084 3085 3087 3089 3090 3092 3094 3094 3094 3096 3098 3099 3099 3101 3101 3102 3103 3103 3103 3105 3106 3107 3107 3108 3109 3109 3109 3111 3111 3112 3112 3111 3112 3113 3113 3113 3113 3113 3113 3114 3113 3113 3113 3113
3046 3047 3047 3048 3049 3049 3050 3051 3051 3052 3053 3055 3056 3057 3058 3058 3059 3060 3061 3062 3063 3063 3064 3064 3064 3065 3065 3066 3067 3067 3067 3068 3068 3068 3069 3071 3072 3073 3074 3075 3077 3078 3080 3082 3083 3085 3087 3088 3090 3092 3092 3092 3094 3096 3096 3097 3098 3098 3100 3102 3101 3101 3104 3105 3105 3105 3107 3107 3106 3106 3108 3109 3109 3109 3108 3108 3109 3110 3110 3111 3110 3110 3110 3110 3110 3110 3110
3043 3044 3045 3046 3047 3047 3048 3049 3049 3050 3051 3052 3053 3055 3056 3057 3057 3058 3059 3060 3061 3062 3063 3063 3063 3064 3064 3065 3065 3066 3066 3067 3067 3067 3068 3069 3070 3071 3072 3073 3075 3076 3078 3080 3081 3083 3085 3086 3088 3090 3090 3090 3092 3093 3093 3094 3095 3097 3099 3099 3098 3100 3103 3103 3103 3103 3105 3105 3103 3103 3106 3107 3106 3105 3105 3106 3106 3107 3108 3108 3108 3108 3108 3107 3108 3108 3108
3041 3042 3042 3044 3045 3045 3046 3047 3047 3048 3049 3050 3051 3052 3054 3055 3056 3057 3057 3058 3059 3060 3061 3061 3062 3062 3063 3064 3064 3064 3065 3065 3066 3066 3067 3067 3068 3070 3071 3072 3073 3075 3076 3078 3079 3081 3083 3085 3087 3088 3087 3088 3090 3091 3091 3093 3094 3095 3096 3097 3097 3099 3101 3100 3101 3102 3103 3102 3099 3100 3103 3104 3103 3103 3103 3103 3104 3104 3105 3105 3105 3105 3105 3105 3105 3106 3106
3038 3039 3040 3041 3042 3043 3044 3045 3046 3047 3048 3048 3049 3051 3052 3053 3054 3055 3056 3057 3057 3058 3059 3060 3060 3061 3062 3063 3063 3063 3063 3064 3064 3065 3066 3066 3067 3068 3069 3071 3072 3073 3075 3076 3078 3079 3081 3084 3085 3085 3085 3086 3088 3090 3090 3091 3092 3093 3095 3096 3096 3096 3097 3096 3098 3099 3099 3097 3096 3097 3099 3100 3101 3101 3101 3101 3101 3102 3102 3102 3102 3102 3102 3103 3103 3104 3104
3035 3036 3038 3039 3040 3041 3042 3043 3044 3045 3046 3047 3047 3049 3050 3051 3052 3053 3054 3055 3056 3056 3057 3058 3059 3060 3061 3062 3062 3062 3063 3063 3063 3064 3064 3065 3066 3067 3068 3069 3070 3072 3073 3075 3076 3078 3079 3080 3081 3082 3083 3085 3087 3088 3088 3090 3091 3092 3093 3093 3093 3093 3093 3094 3095 3095 3095 3094 3094 3094 3095 3097 3098 3099 3099 3098 3098 3099 3099 3099 3099 3099 3099 3100 3100 3101 3102
3032 3034 3035 3036 3038 3039 3040 3041 3042 3043 3044 3045 3046 3047 3048 3050 3051 3052 3052 3053 3054 3055 3056 3057 3058 3058 3059 3060 3061 3061 3062 3062 3062 3063 3063 3064 3065 3066 3067 3068 3069 3070 3072 3073 3075 3076 3077 3078 3079 3081 3082 3083 3084 3085 3086 3088 3090 3090 3089 3088 3090 3091 3091 3091 3092 3091 3091 3092 3092 3092 3092 3093 3095 3096 3096 3095 3095 3096 3096 3097 3097 3097 3097 3097 3097 3098 3098
3030 3031 3032 3034 3035 3037 3038 3039 3040 3041 3042 3043 3044 3045 3047 3048 3049 3050 3050 3051 3052 3053 3054 3056 3056 3057 3058 3059 3059 3060 3061 3061 3061 3062 3063 3063 3064 3065 3066 3067 3068 3069 3070 3072 3073 3074 3075 3076 3078 3079 3080 3080 3081 3082 3083 3085 3087 3087 3086 3085 3087 3089 3088 3087 3088 3087 3087 3087 3089 3089 3090 3091 3091 3091 3092 3092 3092 3093 3094 3094 3094 3094 3094 3094 3094 3094 3095
3027 3028 3030 3031 3033 3034 3036 3037 3038 3040 3041 3042 3043 3044 3045 3046 3047 3048 3049 3050 3051 3052 3053 3054 3055 3056 3057 3057 3058 3059 3059 3060 3060 3061 3062 3063 3063 3064 3065 3066 3066 3068 3069 3070 3071 3072 3073 3075 3075 3076 3077 3077 3077 3079 3080 3081 3082 3083 3083 3082 3084 3084 3083 3083 3083 3083 3083 3084 3085 3086 3086 3087 3087 3087 3087 3089 3090 3091 3091 3091 3091 3091 3091 3092 3091 3091 3091
3024 3026 3028 3029 3031 3032 3034 3035 3037 3038 3039 3041 3042 3043 3043 3044 3045 3046 3047 3048 3049 3051 3052 3053 3054 3055 3056 3056 3057 3057 3058 3059 3060 3060 3061 3062 3063 3063 3064 3065 3065 3066 3067 3068 3069 3071 3072 3073 3074 3075 3075 3075 3075 3076 3076 3076 3078 3080 3080 3080 3080 3080 3079 3079 3079 3080 3081 3081 3081 3081 3081 3082 3082 3083 3084 3086 3087 3088 3087 3088 3088 3088 3088 3089 3088 3088 3088
3022 3024 3025 3027 3028 3030 3032 3033 3034 3036 3038 3039 3041 3041 3042 3043 3044 3044 3046 3047 3048 3050 3051 3052 3053 3055 3055 3056 3056 3056 3057 3058 3059 3060 3060 3061 3062 3062 3063 3064 3064 3065 3066 3067 3068 3069 3070 3071 3072 3072 3072 3072 3073 3072 3072 3073 3075 3076 3076 3076 3076 3076 3076 3076 3077 3077 3078 3078 3077 3077 3076 3077 3078 3079 3080 3081 3082 3083 3084 3084 3084 3085 3085 3085 3085 3085 3085
3020 3022 3023 3025 3026 3028 3030 3031 3032 3034 3036 3038 3039 3040 3041 3042 3042 3043 3044 3046 3047 3048 3050 3051 3052 3054 3055 3056 3056 3056 3056 3057 3058 3059 3059 3060 3061 3062 3062 3063 3064 3064 3064 3065 3066 3066 3068 3069 3069 3069 3070 3070 3069 3068 3069 3071 3073 3073 3073 3073 3073 3073 3073 3074 3074 3074 3074 3074 3074 3074 3073 3073 3073 3074 3074 3075 3076 3078 3079 3080 3081 3081 3081 3081 3081 3082 3082
3018 3020 3021 3023 3024 3026 3028 3029 3030 3032 3034 3036 3037 3039 3040 3041 3041 3042 3043 3044 3046 3047 3048 3050 3051 3052 3054 3055 3055 3055 3055 3056 3057 3058 3058 3059 3060 3061 3061 3062 3063 3063 3062 3063 3064 3065 3066 3066 3066 3066 3067 3067 3066 3066 3067 3069 3070 3070 3070 3070 3070 3070 3070 3071 3071 3071 3071 3071 3071 3071 3070 3070 3070 3069 3070 3070 3071 3072 3073 3075 3076 3077 3077 3077 3078 3078 3077
3017 3018 3020 3021 3023 3025 3026 3028 3029 3030 3032 3034 3036 3037 3039 3039 3040 3041 3042 3043 3045 3046 3047 3049 3050 3051 3052 3053 3054 3054 3055 3056 3056 3057 3057 3058 3059 3059 3060 3062 3063 3062 3061 3062 3062 3063 3063 3063 3063 3063 3063 3063 3064 3065 3066 3066 3067 3067 3067 3067 3067 3066 3066 3066 3067 3067 3067 3067 3067 3067 3067 3067 3066 3066 3065 3065 3066 3066 3067 3068 3070 3071 3072 3073 3074 3074 3073
3015 3017 3019 3020 3022 3024 3025 3027 3028 3029 3031 3033 3035 3036 3037 3038 3039 3040 3041 3042 3043 3045 3046 3048 3049 3050 3051 3052 3053 3053 3054 3055 3055 3056 3057 3057 3058 3059 3059 3061 3061 3060 3060 3061 3061 3061 3061 3060 3060 3059 3060 3060 3062 3063 3063 3063 3063 3064 3064 3063 3063 3062 3062 3062 3063 3063 3063 3063 3063 3063 3062 3062 3062 3062 3062 3061 3062 3062 3062 3063 3064 3065 3067 3068 3069 3069 3069
3014 3016 3018 3020 3022 3024 3025 3026 3027 3028 3030 3031 3033 3035 3036 3037 3038 3039 3040 3041 3042 3044 3045 3046 3047 3049 3050 3051 3052 3053 3053 3054 3055 3056 3056 3057 3058 3058 3059 3060 3060 3059 3059 3060 3060 3059 3059 3059 3058 3057 3057 3058 3059 3059 3059 3060 3061 3061 3060 3060 3059 3058 3058 3058 3059 3059 3059 3059 3059 3059 3058 3058 3057 3057 3058 3058 3058 3058 3058 3059 3059 3060 3061 3063 3064 3065 3066
3013 3015 3017 3019 3021 3023 3024 3025 3027 3028 3029 3031 3032 3033 3034 3035 3037 3038 3039 3040 3041 3042 3044 3045 3046 3047 3048 3050 3051 3051 3052 3053 3054 3055 3055 3056 3057 3057 3058 3059 3059 3057 3058 3060 3059 3057 3057 3058 3057 3057 3057 3058 3058 3056 3056 3057 3058 3057 3056 3056 3054 3054 3054 3054 3054 3055 3055 3055 3055 3055 3054 3054 3054 3053 3053 3053 3054 3054 3054 3054 3054 3055 3056 3057 3059 3060 3061
3013 3015 3017 3019 3020 3022 3023 3025 3027 3028 3029 3030 3031 3033 3034 3035 3036 3037 3038 3040 3041 3042 3042 3043 3045 3046 3047 3048 3049 3050 3051 3052 3053 3053 3054 3055 3055 3056 3058 3058 3057 3056 3058 3058 3057 3055 3054 3055 3055 3056 3056 3056 3055 3053 3054 3055 3054 3052 3051 3050 3050 3049 3049 3049 3050 3051 3051 3050 3050 3050 3050 3050 3050 3049 3049 3049 3049 3049 3049 3049 3049 3050 3051 3052 3053 3054 3054
3012 3014 3017 3019 3020 3021 3023 3025 3026 3027 3028 3030 3030 3032 3033 3034 3035 3036 3037 3039 3041 3041 3041 3042 3044 3046 3046 3047 3048 3049 3050 3051 3052 3053 3054 3054 3054 3055 3056 3056 3056 3056 3056 3055 3053 3053 3053 3053 3053 3055 3054 3053 3051 3051 3051 3050 3049 3047 3046 3046 3046 3046 3045 3045 3045 3046 3047 3046 3046 3045 3045 3045 3045 3045 3045 3045 3045 3045 3045 3045 3045 3045 3046 3046 3047 3048 3049
3012 3014 3016 3018 3020 3021 3023 3024 3025 3026 3027 3029 3029 3031 3032 3033 3034 3036 3037 3038 3039 3040 3041 3042 3043 3044 3045 3046 3047 3048 3049 3050 3051 3052 3052 3053 3053 3053 3054 3055 3055 3055 3054 3052 3051 3052 3052 3052 3052 3053 3052 3050 3049 3048 3046 3044 3043 3042 3042 3042 3042 3042 3042 3041 3041 3041 3042 3042 3042 3041 3041 3041 3041 3041 3041 3041 3041 3041 3041 3041 3041 3042 3042 3042 3043 3044 3044
3011 3013 3016 3018 3019 3021 3023 3024 3025 3026 3027 3028 3029 3031 3033 3033 3034 3036 3038 3038 3038 3039 3041 3041 3043 3044 3045 3046 3046 3047 3048 3049 3050 3051 3051 3052 3052 3052 3053 3054 3053 3053 3051 3050 3050 3050 3050 3049 3049 3050 3048 3047 3045 3043 3040 3040 3039 3039 3038 3038 3039 3038 3038 3038 3038 3038 3038 3038 3038 3037 3037 3037 3037 3037 3038 3038 3038 3038 3038 3038 3038 3038 3039 3039 3039 3040 3040
3011 3013 3015 3017 3018 3020 3022 3023 3024 3025 3026 3028 3029 3031 3033 3034 3035 3036 3037 3037 3038 3039 3040 3040 3042 3044 3045 3045 3046 3047 3048 3048 3049 3050 3050 3050 3051 3051 3052 3052 3051 3050 3049 3049 3049 3048 3048 3047 3047 3047 3045 3042 3039 3038 3037 3037 3036 3035 3034 3034 3034 3034 3034 3034 3034 3034 3034 3035 3034 3034 3034 3033 3034 3034 3034 3034 3034 3034 3035 3035 3035 3036 3036 3037 3037 3037 3037
3011 3013 3015 3017 3018 3020 3021 3022 3024 3025 3026 3028 3029 3031 3033 3034 3035 3035 3035 3036 3037 3038 3038 3039 3041 3043 3044 3045 3046 3047 3047 3047 3048 3049 3049 3049 3050 3051 3050 3050 3049 3048 3048 3047 3047 3046 3045 3046 3046 3044 3041 3037 3035 3035 3034 3032 3031 3030 3029 3029 3029 3030 3030 3030 3030 3031 3031 3032 3031 3031 3031 3030 3030 3030 3030 3031 3031 3031 3031 3032 3032 3033 3034 3034 3034 3035 3035
3011 3013 3015 3017 3018 3020 3021 3022 3023 3025 3026 3027 3029 3030 3032 3033 3033 3033 3033 3035 3036 3037 3038 3039 3041 3043 3044 3045 3046 3046 3046 3047 3048 3048 3048 3049 3050 3049 3048 3048 3048 3047 3046 3045 3044 3044 3043 3043 3042 3039 3035 3033 3032 3031 3029 3027 3026 3026 3025 3024 3024 3025 3026 3026 3026 3027 3027 3028 3028 3028 3028 3027 3027 3027 3027 3027 3027 3028 3029 3029 3030 3030 3031 3031 3031 3032 3032
3012 3014 3015 3017 3018 3020 3021 3022 3024 3025 3025 3026 3027 3029 3030 3031 3032 3032 3033 3034 3036 3037 3038 3040 3041 3043 3043 3044 3045 3045 3046 3046 3047 3047 3047 3047 3048 3047 3047 3046 3045 3045 3044 3043 3042 3041 3040 3038 3036 3033 3032 3030 3028 3026 3024 3022 3020 3020 3019 3020 3020 3020 3020 3021 3022 3023 3023 3024 3024 3024 3024 3024 3024 3024 3024 3024 3024 3025 3026 3027 3027 3028 3028 3028 3029 3030 3030
3012 3014 3016 3017 3019 3020 3021 3023 3024 3024 3025 3026 3027 3028 3029 3031 3032 3032 3033 3034 3036 3037 3039 3040 3041 3042 3042 3043 3044 3044 3045 3045 3046 3046 3046 3045 3046 3046 3046 3044 3043 3042 3042 3041 3039 3038 3036 3033 3031 3028 3027 3025 3023 3020 3018 3016 3015 3014 3014 3014 3015 3014 3015 3016 3017 3019 3020 3020 3021 3021 3021 3021 3021 3021 3021 3021 3022 3023 3023 3024 3025 3026 3026 3027 3027 3027 3027
3013 3014 3016 3018 3019 3020 3021 3023 3024 3024 3025 3026 3027 3028 3029 3031 3032 3032 3033 3034 3036 3037 3038 3039 3040 3041 3041 3042 3043 3044 3044 3045 3044 3044 3044 3045 3045 3045 3044 3042 3041 3041 3040 3038 3036 3034 3031 3028 3025 3023 3021 3019 3016 3014 3013 3011 3010 3009 3009 3009 3010 3010 3010 3012 3013 3015 3016 3017 3018 3018 3018 3018 3019 3019 3019 3019 3020 3021 3021 3022 3023 3023 3023 3024 3024 3025 3025
3013 3015 3016 3018 3019 3020 3021 3022 3023 3024 3025 3026 3027 3028 3029 3031 3032 3032 3033 3035 3036 3037 3038 3039 3039 3040 3041 3042 3043 3043 3043 3043 3043 3043 3043 3044 3044 3044 3042 3041 3040 3039 3037 3035 3032 3029 3027 3024 3021 3019 3016 3014 3012 3010 3008 3007 3006 3005 3005 3005 3006 3007 3007 3008 3010 3011 3013 3014 3015 3015 3016 3016 3016 3017 3017 3017 3018 3019 3020 3020 3021 3021 3021 3021 3021 3022 3022
3014 3015 3016 3018 3019 3020 3021 3023 3024 3024 3025 3026 3027 3028 3029 3030 3031 3032 3033 3035 3036 3037 3038 3038 3039 3040 3041 3041 3042 3042 3042 3041 3042 3042 3042 3042 3042 3041 3040 3039 3037 3036 3033 3030 3027 3025 3023 3021 3019 3017 3014 3012 3010 3007 3005 3004 3003 3003 3003 3003 3003 3004 3004 3005 3007 3008 3009 3011 3012 3012 3013 3013 3014 3015 3015 3016 3016 3017 3017 3018 3019 3019 3019 3019 3019 3020 3021